Le nostre stazioni meteo in Italia

Pubblicità
Il mio iltempo24.it
Grosseto, Italia (16206): Temperatura & dewpoint: 13.04.2019 17:00:00 - 19.04.2019 17:00:00 (CEST)Grosseto, Italia (16206): velocità del vento: 13.04.2019 17:00:00 - 19.04.2019 17:00:00 (CEST)Grosseto, Italia (16206): direzione del vento: 13.04.2019 17:00:00 - 19.04.2019 17:00:00 (CEST)Grosseto, Italia (16206): reduced air pressure: 13.04.2019 17:00:00 - 19.04.2019 17:00:00 (CEST)Grosseto, Italia (16206): visibility: 13.04.2019 17:00:00 - 19.04.2019 17:00:00 (CEST)
Data & Tempo tt [°C] td [°C] ff [km/h] ff [kn] dd ppp [hPa] vv [km]
19.04.2019 17:00:00 19,8 8,5 28 15 SO 1025,7 40
19.04.2019 16:00:00 20,8 5,6 26 14 SO 1025,9 40
19.04.2019 15:00:00 22,2 5,6 26 14 SO 1026,2 10
19.04.2019 14:00:00 23,4 5,8 21 11 SO 1026,3 40
19.04.2019 13:00:00 23,4 5,8 8 4 N 1026,3 40
19.04.2019 12:00:00 22,4 5,4 8 4 ONO 1026,6 10
19.04.2019 11:00:00 20,8 9,4 5 3 NNO 1026,8 30
19.04.2019 10:00:00 17,4 9,1 4 2 N 1026,7 20
19.04.2019 09:00:00 14,8 8,1 4 2 N 1026,7 25
19.04.2019 08:00:00 11,4 6,5 4 2 ENE 1026,2 20
19.04.2019 07:00:00 7,8 4,9 4 2 ENE 1025,9 40
19.04.2019 06:00:00 8,4 5,3 4 2 NNE 1024,8 25
19.04.2019 05:00:00 8,6 6,2 2 1 NE 1024,4 15
19.04.2019 04:00:00 8,2 5,0 8 4 N 1024,5 10
19.04.2019 03:00:00 8,4 5,9 4 2 N 1024,0 15
19.04.2019 02:00:00 10,8 9,4 2 1 E 1008,9 10
19.04.2019 01:00:00 12,5 -30,0 8 4 N 1020,3 18
19.04.2019 00:00:00 10,6 8,7 5 3 N 1023,9 15
18.04.2019 23:00:00 11,0 9,6 5 3 NNO 1023,6 15
18.04.2019 22:00:00 12,8 10,9 4 2 N 1023,0 20
18.04.2019 21:00:00 14,0 11,7 5 3 ESE 1022,2 15
18.04.2019 20:00:00 14,0 11,0 9 5 SO 1021,9 20
18.04.2019 19:00:00 17,6 12,1 11 6 SO 1021,5 30
18.04.2019 18:00:00 20,0 12,7 15 8 SO 1021,2 35
18.04.2019 17:00:00 20,0 11,2 21 11 SO 1021,2 35
18.04.2019 16:00:00 20,8 10,6 21 11 OSO 1021,2 35
18.04.2019 15:00:00 21,2 7,8 22 12 SO 1021,2 35
18.04.2019 14:00:00 23,4 6,7 21 11 SO 1021,1 35
18.04.2019 13:00:00 24,0 5,4 8 4 ENE 1021,3 35
18.04.2019 12:00:00 22,6 5,1 4 2 S 1021,8 35
18.04.2019 11:00:00 20,6 6,2 5 3 NE 1021,9 35
18.04.2019 10:00:00 17,6 9,0 8 4 NE 1021,8 30
18.04.2019 09:00:00 13,6 7,8 5 3 ENE 1021,9 15
18.04.2019 08:00:00 10,0 8,1 8 4 ENE 1021,7 12
18.04.2019 07:00:00 6,6 5,1 9 5 NE 1021,2 30
18.04.2019 06:00:00 7,4 6,4 5 3 NE 1021,0 30
18.04.2019 05:00:00 10,0 8,4 4 2 E 1022,0 20
18.04.2019 04:00:00 10,0 8,9 8 4 ENE 1022,2 20
18.04.2019 03:00:00 10,0 8,9 8 4 NNE 1022,2 20
18.04.2019 02:00:00 10,0 8,8 9 5 NE 1022,0 20
18.04.2019 01:00:00 10,0 8,3 5 3 NNO 1020,9 20
18.04.2019 00:00:00 10,4 8,7 9 5 NE 1020,6 20
17.04.2019 23:00:00 10,8 8,7 8 4 NNE 1020,4 20
17.04.2019 22:00:00 12,6 9,8 8 4 ESE 1020,1 20
17.04.2019 21:00:00 12,8 9,4 8 4 ESE 1019,6 20
17.04.2019 20:00:00 16,0 10,7 8 4 OSO 1018,9 20
17.04.2019 19:00:00 18,8 11,4 15 8 OSO 1018,8 25
17.04.2019 18:00:00 20,0 10,1 21 11 OSO 1018,9 20
17.04.2019 17:00:00 21,8 11,5 16 9 OSO 1019,0 25
17.04.2019 16:00:00 21,0 11,1 21 11 SO 1019,0 25
17.04.2019 15:00:00 21,4 9,6 21 11 SO 1019,6 25
17.04.2019 14:00:00 20,8 11,2 13 7 SSO 1020,0 25
17.04.2019 13:00:00 19,4 10,7 11 6 SO 1020,3 20
17.04.2019 12:00:00 19,0 10,3 5 3 SSO 1020,7 20
17.04.2019 11:00:00 16,8 9,3 5 3 N 1020,7 20
17.04.2019 10:00:00 14,0 10,4 4 2 N 1020,8 20
17.04.2019 09:00:00 9,4 7,7 5 3 N 1020,9 15
17.04.2019 08:00:00 5,2 4,3 4 2 N 1020,7 15
17.04.2019 07:00:00 3,4 2,5 9 5 NNE 1020,3 10
17.04.2019 06:00:00 6,0 4,3 8 4 ENE 1019,9 20
17.04.2019 05:00:00 6,0 5,1 5 3 NNE 1020,4 20
17.04.2019 04:00:00 6,4 4,9 5 3 N 1020,7 20
17.04.2019 03:00:00 6,0 5,3 4 2 N 1020,8 20
17.04.2019 02:00:00 7,4 5,7 4 2 ONO 1020,8 20
17.04.2019 01:00:00 9,0 8,2 5 3 N 1020,7 20
17.04.2019 00:00:00 10,8 10,0 2 1 NE 1020,6 20
16.04.2019 23:00:00 11,4 10,8 4 2 SE 1020,7 20
16.04.2019 22:00:00 11,0 9,4 4 2 N 1020,4 20
16.04.2019 21:00:00 13,0 11,2 2 1 E 1019,9 20
16.04.2019 20:00:00 15,4 12,4 8 4 O 1019,4 20
16.04.2019 19:00:00 16,8 10,4 13 7 O 1019,0 20
16.04.2019 18:00:00 17,8 11,1 21 11 OSO 1018,8 20
16.04.2019 17:00:00 18,4 10,7 24 13 OSO 1018,8 20
16.04.2019 16:00:00 18,2 11,5 24 13 SO 1019,1 20
16.04.2019 15:00:00 17,8 11,1 22 12 SO 1019,3 20
16.04.2019 14:00:00 18,0 10,9 21 11 SO 1019,3 20
16.04.2019 13:00:00 17,8 9,9 13 7 SO 1019,3 20
16.04.2019 12:00:00 17,8 8,9 8 4 SSO 1019,3 20
16.04.2019 11:00:00 16,4 8,1 4 2 N 1019,3 30
16.04.2019 10:00:00 14,0 8,4 5 3 ENE 1019,3 20
16.04.2019 09:00:00 11,0 7,3 8 4 ENE 1019,4 30
16.04.2019 08:00:00 8,0 6,5 5 3 ENE 1019,3 30
16.04.2019 07:00:00 6,0 4,5 9 5 ENE 1018,4 20
16.04.2019 06:00:00 5,8 4,0 9 5 ENE 1018,3 20
16.04.2019 05:00:00 6,8 5,1 5 3 NE 1018,9 20
16.04.2019 04:00:00 7,0 4,8 13 7 ENE 1018,9 20
16.04.2019 03:00:00 7,8 5,4 8 4 ENE 1018,9 20
16.04.2019 02:00:00 7,8 5,9 2 1 ENE 1018,8 20
16.04.2019 01:00:00 7,8 5,8 4 2 N 1018,9 20
16.04.2019 00:00:00 8,8 6,8 5 3 NE 1018,4 20
15.04.2019 23:00:00 9,6 6,7 13 7 NNO 1018,3 20
15.04.2019 22:00:00 11,0 6,6 9 5 N 1018,3 20
15.04.2019 21:00:00 14,0 7,3 8 4 NNO 1017,9 20
15.04.2019 20:00:00 15,8 6,8 13 7 NE 1016,9 20
15.04.2019 19:00:00 18,0 6,2 16 9 NNE 1016,9 10
15.04.2019 18:00:00 19,0 6,5 22 12 NNE 1016,9 20
15.04.2019 17:00:00 19,4 6,8 26 14 NNE 1016,9 20
15.04.2019 16:00:00 19,8 7,2 26 14 NNE 1016,9 20
15.04.2019 15:00:00 19,6 7,4 26 14 NNE 1016,9 20
15.04.2019 14:00:00 19,8 7,9 28 15 NNE 1016,9 20
15.04.2019 13:00:00 19,0 7,1 31 17 NNE 1016,9 20
15.04.2019 12:00:00 17,8 7,3 29 16 NNE 1016,9 20
15.04.2019 11:00:00 15,6 6,1 35 19 NNE 1016,9 20
15.04.2019 10:00:00 15,0 6,1 26 14 NNE 1015,9 20
15.04.2019 09:00:00 11,4 5,7 21 11 N 1015,3 30
15.04.2019 08:00:00 9,4 5,0 22 12 N 1014,9 25
15.04.2019 07:00:00 8,2 4,6 24 13 N 1013,9 25
15.04.2019 06:00:00 8,4 4,8 21 11 N 1013,4 20
15.04.2019 05:00:00 8,2 5,1 22 12 N 1013,0 15
15.04.2019 04:00:00 8,4 5,2 9 5 NNO 1012,9 10
15.04.2019 03:00:00 8,6 5,7 13 7 NNE 1012,8 15
15.04.2019 02:00:00 8,6 5,5 15 8 N 1012,6 15
15.04.2019 01:00:00 9,4 5,6 16 9 N 1012,1 15
15.04.2019 00:00:00 9,6 6,5 18 10 NNE 1011,8 12
14.04.2019 23:00:00 10,0 7,4 9 5 N 1011,1 12
14.04.2019 22:00:00 9,8 7,9 9 5 NNE 1010,8 12
14.04.2019 21:00:00 10,0 7,8 21 11 NE 1009,6 20
14.04.2019 20:00:00 11,2 6,4 16 9 ENE 1009,3 15
14.04.2019 19:00:00 11,8 6,9 16 9 ENE 1008,7 15
14.04.2019 18:00:00 11,2 6,5 24 13 NNE 1008,1 15
14.04.2019 17:00:00 12,6 7,3 26 14 N 1008,1 15
14.04.2019 16:00:00 16,2 9,2 9 5 S 1007,6 20
14.04.2019 15:00:00 16,4 9,6 16 9 SSE 1007,8 30
14.04.2019 14:00:00 17,8 10,9 18 10 SSE 1008,1 20
14.04.2019 13:00:00 16,6 10,5 21 11 S 1008,6 20
14.04.2019 12:00:00 16,4 10,5 22 12 SE 1009,1 30
14.04.2019 11:00:00 14,2 10,0 22 12 SE 1009,7 20
14.04.2019 10:00:00 12,6 8,9 5 3 NE 1010,1 20
14.04.2019 09:00:00 8,0 4,8 8 4 N 1010,7 15
14.04.2019 08:00:00 6,0 3,3 9 5 ENE 1011,7 10
14.04.2019 07:00:00 5,8 3,5 9 5 NE 1011,7 12
14.04.2019 06:00:00 5,8 4,0 5 3 NE 1012,7 15
14.04.2019 05:00:00 4,8 3,1 9 5 ENE 1011,7 10
14.04.2019 04:00:00 5,6 3,4 9 5 ENE 1011,9 10
14.04.2019 03:00:00 - - - - - - -
14.04.2019 02:00:00 6,2 4,0 2 1 N 1012,8 15
14.04.2019 01:00:00 7,4 5,2 5 3 N 1012,9 15
14.04.2019 00:00:00 8,0 5,1 5 3 N 1013,0 15
13.04.2019 23:00:00 9,4 6,0 9 5 NNO 1012,9 15
13.04.2019 22:00:00 10,0 6,4 5 3 N 1012,7 15
13.04.2019 21:00:00 12,8 7,9 11 6 NNE 1012,1 15
13.04.2019 20:00:00 14,8 7,4 11 6 NNE 1011,1 25
13.04.2019 19:00:00 16,4 9,1 11 6 N 1011,2 25
13.04.2019 18:00:00 16,8 7,7 11 6 NNO 1011,2 25
13.04.2019 17:00:00 16,8 8,0 13 7 NNE 1011,2 25

tt = Temperatura
td = dewpoint
ff = velocità del vento
dd = direzione del vento
ppp = reduced air pressure
vv = visibility

Stazioni seguenti

WeatherPro
AMSI
MeteoEarth